Regional Weather Roundup
Issued by NWS

Home | Current Version | Previous Version | Graphics & Text | Print | Product List | Glossary On
Versions: 1 2 3 4 5 6 7 8 9 10 11 12 13 14 15 16 17 18 19 20 21 22 23 24 25 26 27 28 29 30 31 32 33 34 35 36 37 38 39 40 41 42 43 44 45 46 47 48 49 50
427
ASUS43 KBIS 281210
RWRND

NORTH DAKOTA REGIONAL WEATHER ROUNDUP
NATIONAL WEATHER SERVICE BISMARCK ND
700 AM CDT WED JUN 28 2017

NOTE: "FAIR" INDICATES FEW OR NO CLOUDS BELOW 12,000 FEET WITH NO
SIGNIFICANT WEATHER AND/OR OBSTRUCTIONS TO VISIBILITY.


NDZ001>003-009>011-017-281300-
NORTHWEST NORTH DAKOTA

CITY           SKY/WX    TMP DP  RH WIND       PRES   REMARKS
WILLISTON      PTCLDY    52  41  66 NW3       29.74R
6HR MIN TEMP:  52; 6HR MAX TEMP:  67;

MINOT          PTCLDY    61  51  70 W17       29.62R
MINOT AFB      PTCLDY    59  51  74 NW13      29.62R
$$

NDZ018>021-031>035-040>046-281300-
SOUTHWEST NORTH DAKOTA

CITY           SKY/WX    TMP DP  RH WIND       PRES   REMARKS
BISMARCK       CLOUDY    63  60  90 NW12      29.61S
6HR MIN TEMP:  63; 6HR MAX TEMP:  66;

DICKINSON      PTCLDY    54  52  93 NW10      29.72R
GARRISON         N/A     59  55  87 NW13      29.63S
6HR MIN TEMP:  57; 6HR MAX TEMP:  67;

HETTINGER ARPT MOCLDY    58  54  86 NW8       29.74R
$$

NDZ004>008-012>016-024-026-027-054-281300-
NORTHEAST NORTH DAKOTA

CITY           SKY/WX    TMP DP  RH WIND       PRES   REMARKS
GRAND FORKS    HVY RAIN  61  61 100 N10       29.51S FOG
GRND FRKS AFB  TSTM      59  59 100 N13       29.52S FOG
DEVILS LAKE    LGT RAIN  63  63 100 NW9       29.56S
$$

NDZ022-023-025-028>030-036>039-047>053-281300-
SOUTHEAST NORTH DAKOTA

CITY           SKY/WX    TMP DP  RH WIND       PRES   REMARKS
FARGO          CLOUDY    69  63  81 SE18G25   29.47F
6HR MIN TEMP:  62; 6HR MAX TEMP:  69; 6HR PCP:  0.41;

JAMESTOWN      CLOUDY    61  58  90 N9        29.52R
$$





USA.gov is the U.S. government's official web portal to all federal, state and local government web resources and services.